CAPE
4 5 6 7 7 6 3 5 7 7 3 4 4 4 4 4 4 4 3 2 2 1 0 1 1 0 nan nan 0 0 5 9 14 14 18 21 24 24 19 19 19 22 23 24 24 29 31 31 31 29 27 27 28 28 31 34 34 38 40 44 44 49 54 55 55 56 50 43 37 37 30 24 20 20 15 14 13 13 13 14 14 15 17 19 19 19
4 6 7 7 7 5 3 4 4 4 3 3 3 3 3 3 3 3 3 2 2 1 0 1 1 0 0 0 1 1 6 13 17 17 26 27 26 26 23 21 21 25 23 25 25 26 23 22 22 15 13 13 13 13 15 19 19 22 24 28 28 29 33 35 35 39 35 32 27 27 23 21 20 20 18 18 19 19 20 21 21 23 24 25 25 28
3 5 6 7 7 3 3 4 3 3 4 3 4 4 4 3 4 4 4 3 3 2 3 7 7 6 6 1 2 2 6 14 19 19 25 26 23 23 20 20 20 19 21 18 18 15 9 8 8 7 7 8 9 9 9 12 12 13 15 18 18 19 24 25 25 29 27 27 24 24 23 20 18 18 17 20 24 24 25 28 28 29 30 33 33 36
1 3 4 6 6 4 4 5 6 6 5 5 6 6 5 5 5 5 7 6 6 4 5 7 7 8 9 3 1 1 5 14 20 20 20 21 18 18 17 17 17 18 18 12 12 7 3 3 3 3 4 5 4 4 6 7 7 8 11 13 13 16 21 21 21 23 23 23 22 22 19 14 12 12 14 17 20 20 24 27 27 29 31 36 36 44
2 3 3 4 4 4 4 7 6 6 5 6 6 6 6 6 7 7 8 7 7 4 5 5 5 7 7 4 1 1 5 12 15 15 15 14 12 12 11 11 11 8 8 4 4 1 1 1 1 1 2 2 3 3 4 3 3 7 10 13 13 17 24 22 22 19 21 20 14 14 13 12 13 13 15 18 23 23 25 26 26 27 31 35 35 40
2 3 4 4 4 4 5 6 6 6 4 5 4 4 3 4 6 6 8 8 8 7 7 7 7 6 4 2 1 1 4 7 8 8 8 6 4 4 4 4 4 3 1 0 0 0 0 0 0 0 0 1 2 2 4 6 6 9 13 18 18 20 22 20 20 17 15 13 11 11 10 13 14 14 17 19 22 22 25 28 28 29 30 30 30 37
2 3 4 4 4 4 6 6 6 6 4 4 3 3 3 2 4 4 6 8 8 8 8 5 5 1 0 0 nan nan nan nan 0 0 nan nan 0 0 0 0 0 nan nan nan nan nan nan nan nan nan nan 0 2 2 4 6 6 10 14 16 16 16 17 15 15 12 12 9 9 9 10 14 16 16 17 19 20 20 24 27 27 30 32 34 34 34
2 3 2 2 2 3 4 4 5 5 5 6 4 4 2 3 2 2 0 nan nan nan nan nan nan nan nan nan nan nan nan nan nan nan nan nan nan nan nan nan nan nan nan nan nan nan nan nan nan nan nan nan nan nan 0 2 2 4 5 5 5 7 7 8 8 10 11 11 11 11 11 13 14 14 15 15 14 14 17 22 22 25 32 35 35 38
1 2 2 1 1 2 3 4 5 5 4 6 4 4 0 nan nan nan nan nan nan nan nan nan nan nan nan nan nan nan nan nan nan nan nan nan nan nan nan nan nan nan nan nan nan nan nan nan nan nan nan nan nan nan nan nan nan 0 1 1 1 4 6 8 8 9 9 10 11 11 12 13 14 14 13 13 13 13 15 16 16 21 25 32 32 38
1 2 2 2 2 3 3 2 1 1 0 2 nan nan nan nan nan nan nan nan nan nan nan nan nan nan nan nan nan nan nan nan nan nan nan nan nan nan nan nan nan nan nan nan nan nan nan nan nan nan nan nan nan nan nan nan nan 0 0 1 1 2 4 6 6 8 9 9 10 10 12 12 12 12 13 13 13 13 14 15 15 18 25 29 29 35
0 1 0 0 0 0 nan nan nan nan nan nan nan nan nan nan nan nan nan nan nan nan nan nan nan nan nan nan nan nan nan nan nan nan nan nan nan nan nan nan nan nan nan nan nan nan nan nan nan nan nan nan nan nan nan nan nan nan nan 0 0 1 2 3 3 5 7 9 9 9 10 11 12 12 13 15 18 18 17 18 18 19 22 27 27 36
nan nan nan nan nan nan nan nan nan nan nan nan nan nan nan nan nan nan nan nan nan nan nan nan nan nan nan nan nan nan nan nan nan nan nan nan nan nan nan nan nan nan nan nan nan nan nan nan nan nan nan nan nan nan nan nan nan nan nan nan nan nan 0 1 1 3 5 6 8 8 9 11 12 12 15 17 19 19 18 18 18 18 22 27 27 32
nan nan nan nan nan nan nan nan nan nan nan nan nan nan nan nan nan nan nan nan nan nan nan nan nan nan nan nan nan nan nan nan nan nan nan nan nan nan nan nan nan nan nan nan nan nan nan nan nan nan nan nan nan nan nan nan nan nan nan nan nan nan nan nan nan 1 2 3 7 7 9 11 13 13 17 19 20 20 20 21 21 20 21 24 24 29
nan nan nan nan nan nan nan nan nan nan nan nan nan nan nan nan nan nan nan nan nan nan nan nan nan nan nan nan nan nan nan nan nan nan nan nan nan nan nan nan nan nan nan nan nan nan nan nan nan nan nan nan nan nan nan nan nan nan nan nan nan nan 0 0 0 2 4 6 10 10 12 12 16 16 18 19 19 19 19 20 20 19 19 21 21 24
nan nan nan nan nan nan nan nan nan nan nan nan nan nan nan nan nan nan nan nan nan nan nan nan nan nan nan nan nan nan nan nan nan nan nan nan nan nan nan nan nan nan nan nan nan nan nan nan nan nan nan nan nan nan nan nan nan nan 0 1 1 2 3 5 5 6 9 11 13 13 15 16 16 16 17 17 17 17 17 15 15 17 18 18 18 20
nan nan nan nan nan nan nan nan nan nan nan nan nan nan nan nan nan nan nan nan nan nan nan nan nan nan nan nan nan nan nan nan nan nan nan nan nan nan nan nan nan nan nan nan nan nan nan nan nan nan nan nan nan nan nan 0 0 4 4 7 7 8 9 11 11 12 12 13 16 16 17 18 17 17 16 14 14 14 14 14 14 15 15 17 17 16
nan nan nan nan nan nan nan nan nan nan nan nan nan nan nan nan nan nan nan nan nan nan nan nan nan nan nan nan nan nan nan nan nan nan nan nan nan nan nan nan nan nan nan nan nan nan nan nan nan nan nan nan nan nan nan 2 2 5 8 8 8 9 11 11 11 13 12 13 15 15 15 16 15 15 14 13 13 13 13 14 14 15 14 14 14 14
nan nan nan nan nan nan nan nan nan nan nan nan nan nan nan nan nan nan nan nan nan nan nan nan nan nan nan nan nan nan nan nan nan nan nan nan nan nan nan nan nan nan nan nan nan nan nan nan nan nan nan nan nan nan 0 2 2 4 6 7 7 8 10 11 11 13 14 14 15 15 14 14 14 14 13 12 11 11 13 13 13 13 12 13 13 13
nan nan nan nan nan nan nan nan nan nan nan nan nan nan nan nan nan nan nan nan nan nan nan nan nan nan nan nan nan nan nan nan nan nan nan nan nan nan nan nan nan nan nan nan nan nan nan nan nan nan nan nan nan nan nan 1 1 3 5 6 6 7 8 10 10 11 12 13 14 14 13 13 13 13 13 12 13 13 13 14 14 13 13 14 14 13
nan nan nan nan nan nan nan nan nan nan nan nan nan nan nan nan nan nan nan nan nan nan nan nan nan nan nan nan nan nan nan nan nan nan nan nan nan nan nan nan nan nan nan nan nan nan nan nan nan nan nan nan nan nan nan 0 0 2 4 6 6 7 8 8 8 9 11 12 12 12 12 13 12 12 12 11 13 13 14 13 13 13 13 13 13 13
nan nan nan nan nan nan nan nan nan nan nan nan nan nan nan nan nan nan nan nan nan nan nan nan nan nan nan nan nan nan nan nan nan nan nan nan nan nan nan nan nan nan nan nan nan nan nan nan nan nan nan nan nan nan nan 0 0 2 3 5 5 6 6 6 6 7 8 9 12 12 11 12 13 13 12 11 12 12 13 13 13 13 13 12 12 12
nan nan nan nan nan nan nan nan nan nan nan nan nan nan nan nan nan nan nan nan nan nan nan nan nan nan nan nan nan nan nan nan nan nan 0 nan nan nan nan nan nan nan nan nan nan nan nan nan nan nan nan nan nan nan 0 0 0 1 2 3 3 4 4 6 6 6 7 8 10 10 10 11 11 11 13 12 12 12 12 12 12 13 12 13 13 13
nan nan nan nan nan nan nan nan nan nan nan nan 2 2 nan nan 1 1 nan nan nan nan nan nan nan nan nan nan nan nan nan nan nan nan 0 nan nan nan nan nan nan nan nan nan nan nan nan nan nan nan nan nan nan nan 0 0 0 1 1 2 2 2 3 3 3 4 6 7 10 10 10 11 12 12 13 13 13 13 13 12 12 12 12 11 11 12
nan nan nan nan nan nan nan nan nan nan nan nan nan nan nan nan nan nan nan nan nan nan nan nan nan nan nan nan nan nan nan nan nan nan nan nan nan nan nan nan nan nan nan nan nan nan nan nan nan nan nan nan nan nan 0 1 1 2 2 3 3 3 3 4 4 5 7 9 11 11 12 12 13 13 13 13 12 12 12 11 11 11 11 10 10 12
nan nan nan nan nan nan nan nan nan nan nan nan nan nan nan nan nan nan nan nan nan nan nan nan nan nan nan nan nan nan nan nan nan nan nan nan nan nan nan nan nan nan nan nan nan nan nan nan nan nan nan nan nan nan 0 2 2 3 5 6 6 6 7 6 6 9 9 11 12 12 13 13 12 12 13 12 12 12 11 11 11 10 10 11 11 11
nan 0 nan nan nan 0 2 17 21 21 nan nan nan nan nan nan nan nan nan nan nan nan nan nan nan nan nan nan nan nan nan nan nan nan nan nan nan nan nan nan nan nan nan nan nan nan nan nan nan nan nan nan nan nan nan 1 1 3 4 5 5 6 4 5 5 6 7 9 9 9 9 10 10 10 9 10 9 9 10 10 10 10 10 10 10 11
9 10 14 19 19 19 16 10 9 9 14 13 nan nan nan nan nan nan nan nan nan nan nan nan nan nan nan nan nan nan nan nan nan nan nan 0 nan nan nan nan nan nan nan nan nan nan nan nan nan nan nan nan nan nan nan nan nan 1 2 2 2 2 1 3 3 3 4 4 5 5 6 6 8 8 7 8 9 9 9 10 10 10 11 11 11 12
7 10 9 7 7 4 1 nan 1 1 7 13 20 20 2 nan nan nan nan nan nan nan nan nan nan nan nan nan nan nan nan nan nan nan nan 0 nan nan nan nan nan nan nan nan nan nan nan nan nan nan nan nan nan nan nan nan nan nan nan nan nan nan 0 0 0 1 2 3 4 4 4 5 5 5 6 6 7 7 7 9 9 11 11 9 9 7
nan nan nan nan nan nan nan nan nan nan 1 2 7 7 1 nan nan nan nan nan nan nan nan nan nan nan nan nan nan nan nan nan nan nan nan nan 2 2 nan nan nan nan nan nan nan nan nan nan nan nan nan nan nan nan nan nan nan nan nan nan nan nan nan nan nan nan 0 1 2 2 3 3 4 4 4 5 7 7 8 11 11 12 10 6 6 4
nan nan nan nan nan nan nan nan nan nan nan 0 0 0 0 nan nan nan nan nan nan nan nan nan nan nan nan nan nan nan nan nan nan nan nan nan 2 2 nan nan nan nan nan nan nan nan nan nan nan nan nan nan nan nan nan nan nan nan nan nan nan nan nan nan nan nan nan nan 0 0 1 2 2 2 3 4 5 5 6 9 9 9 6 3 3 4
nan nan nan nan nan nan nan nan nan nan nan nan nan nan nan nan nan nan nan nan nan nan nan nan nan nan nan nan nan nan nan nan nan nan nan 1 1 1 nan 0 0 nan nan 0 0 nan nan nan nan nan nan nan nan nan nan nan nan nan nan nan nan nan nan nan nan nan nan nan nan nan nan 0 0 0 1 2 3 3 6 8 8 9 4 4 4 4
nan nan nan nan nan nan nan nan nan nan nan nan nan nan nan nan nan nan nan nan nan nan nan nan nan nan nan nan nan nan nan nan nan nan nan nan 2 2 5 5 5 3 2 4 4 2 nan nan nan nan nan nan nan nan nan nan nan nan nan nan nan nan nan nan nan nan nan nan nan nan nan nan nan nan nan 0 1 1 4 4 4 7 6 4 4 3
nan nan nan nan nan nan nan nan nan nan nan nan nan nan nan nan nan nan nan nan nan nan nan nan nan nan nan 0 0 0 0 nan nan nan nan nan 2 2 7 4 4 2 1 2 2 2 1 0 0 0 nan nan nan nan nan nan nan nan nan nan nan nan nan nan nan nan nan nan nan nan nan nan nan nan nan nan 0 0 2 4 4 6 7 4 4 4
nan nan nan nan nan nan nan nan nan nan nan nan nan nan nan nan nan nan nan nan nan nan nan nan nan nan nan nan 0 0 0 nan 13 13 1 nan 1 1 3 2 2 1 1 1 1 1 0 0 0 0 nan nan nan nan nan nan nan nan nan nan nan nan nan nan nan nan nan nan nan nan nan nan nan nan nan nan nan nan 0 2 2 7 9 9 9 7
nan nan nan nan nan nan nan nan nan nan nan nan nan nan nan nan nan nan nan nan nan nan nan nan nan nan nan nan nan nan nan nan nan nan nan nan nan nan 2 1 1 1 1 1 1 1 1 0 0 1 0 nan nan nan nan nan nan nan nan nan nan nan nan nan nan nan nan nan nan nan nan nan nan nan nan nan nan nan 0 3 3 6 9 13 13 12
nan nan nan nan nan nan nan nan nan nan nan nan nan nan nan nan nan nan nan nan nan nan nan nan nan nan nan nan nan nan nan nan nan nan nan nan nan nan 0 1 1 1 2 2 2 1 1 1 1 2 1 0 nan nan nan nan nan nan nan nan nan nan nan nan nan nan nan nan nan nan nan nan nan nan nan nan nan nan 1 4 4 7 8 12 12 12
nan nan nan nan nan nan nan nan nan nan nan nan nan nan nan nan nan nan nan nan nan nan nan nan nan nan nan nan nan nan nan nan nan nan nan nan nan nan 0 1 1 3 3 3 3 2 2 1 1 1 0 nan nan nan nan nan nan nan nan nan nan nan nan nan nan nan nan nan nan nan nan nan nan nan nan nan 0 0 1 2 2 3 4 6 6 9
nan nan nan nan nan nan nan nan nan nan nan nan nan nan nan nan nan nan nan nan nan nan nan nan nan nan nan nan nan nan nan nan nan nan nan nan nan nan 0 2 2 3 4 4 4 3 3 1 1 1 nan nan 0 0 0 0 0 0 nan nan nan nan nan nan nan nan nan nan nan nan nan nan nan nan nan nan nan nan nan nan nan nan 0 1 1 3
nan nan nan nan nan nan nan nan nan nan nan nan nan nan nan nan nan nan nan nan nan nan nan nan nan nan nan nan nan nan nan nan nan nan nan nan nan nan nan 2 2 3 5 6 6 6 4 2 2 1 0 nan 0 0 nan 0 0 0 0 nan nan nan nan 0 0 nan nan nan nan nan nan nan nan nan nan nan nan nan nan nan nan nan nan nan nan 0
nan nan nan nan nan nan nan nan nan nan nan nan nan nan nan nan nan nan nan nan nan nan nan nan nan nan nan nan nan nan nan nan nan nan nan nan nan nan nan 3 3 4 6 8 8 7 5 3 3 2 2 1 1 1 1 1 1 1 2 0 0 0 nan 0 0 nan nan nan nan nan nan nan nan nan nan nan nan nan nan nan nan nan nan nan nan nan
nan nan nan nan nan nan nan nan nan nan nan nan nan nan nan nan nan nan nan nan nan nan nan nan nan nan nan nan nan nan nan nan nan nan nan nan nan nan nan 1 1 4 7 7 7 8 8 4 4 3 3 3 3 3 3 1 1 3 4 1 1 0 0 0 0 0 nan nan nan nan nan nan nan nan nan nan nan nan nan nan nan nan nan nan nan nan
nan nan nan nan nan nan nan nan nan nan nan nan nan nan nan nan 0 0 nan 0 0 nan nan nan nan 0 0 nan nan nan nan nan nan nan nan nan nan nan nan 0 0 5 5 6 6 7 8 7 7 4 4 3 2 2 1 1 1 2 2 1 1 1 1 0 0 0 nan nan nan nan nan nan nan nan nan nan nan nan nan nan nan nan nan nan nan nan
nan nan nan nan nan nan nan nan nan nan nan nan nan nan 1 4 3 3 nan nan nan nan 0 1 1 2 0 nan nan nan nan nan nan nan nan nan nan nan nan nan nan 2 4 4 4 5 5 7 7 5 4 3 2 2 1 1 1 1 1 1 1 1 0 nan nan nan nan nan nan nan nan nan nan nan nan nan nan nan nan nan nan 0 0 nan nan nan
nan nan nan nan nan nan nan nan nan nan nan nan 0 0 1 1 0 0 1 0 0 1 2 2 2 2 0 nan nan nan nan 0 nan nan nan 0 nan nan nan nan nan nan 0 3 3 5 4 5 5 4 3 4 2 2 1 1 1 0 0 1 1 1 0 nan nan nan nan nan nan nan nan nan nan nan nan nan nan nan nan nan nan nan nan nan nan nan
nan nan nan nan nan nan nan nan nan nan nan nan 1 1 nan nan nan nan 0 0 0 1 1 2 2 1 nan nan nan nan nan nan 1 1 nan 4 8 8 2 nan nan nan 0 nan nan 2 4 4 4 3 3 5 3 3 2 1 1 0 0 1 1 1 1 0 0 0 0 nan nan nan nan nan nan nan nan nan nan nan nan nan nan nan nan nan nan nan
nan nan nan nan nan nan nan nan nan nan nan 0 0 0 nan nan nan nan 1 0 0 1 1 3 3 1 nan nan nan nan nan nan nan nan nan nan 1 1 6 5 5 3 1 nan nan 0 1 3 3 4 5 4 3 3 2 1 1 0 0 0 0 0 0 0 0 nan nan nan nan nan nan 0 0 0 0 nan nan nan nan nan nan nan nan nan nan nan
nan nan nan nan nan nan nan nan 0 0 1 1 1 1 0 0 0 0 1 2 2 3 3 4 4 1 0 nan nan nan nan nan nan nan nan nan nan nan nan 0 0 4 3 2 2 0 0 3 3 5 4 4 2 2 0 0 0 0 0 nan nan 0 nan nan nan nan nan nan nan nan nan 0 0 0 0 0 0 0 nan nan nan 0 0 0 0 nan
nan nan nan nan nan nan 0 0 0 0 0 1 2 2 1 1 1 1 3 5 5 6 6 2 2 1 nan nan nan nan nan nan nan nan nan nan nan nan nan nan nan 0 2 3 3 8 6 2 2 4 4 3 1 1 0 0 0 0 0 0 0 nan nan nan nan nan nan 0 0 0 1 0 0 0 0 0 nan nan nan nan nan nan nan nan nan nan
nan nan nan nan nan nan nan nan nan nan nan nan nan nan nan 1 5 5 4 6 6 5 2 1 1 0 nan nan nan nan nan 0 nan nan nan nan nan nan 0 nan nan nan 0 1 1 2 3 7 7 4 4 3 1 1 0 nan nan 0 0 0 0 0 nan nan nan nan nan 0 nan nan nan nan 0 0 0 1 0 0 nan nan nan nan nan nan nan nan
nan nan nan nan nan nan nan nan nan nan nan nan nan nan nan nan 1 1 3 3 3 1 1 0 0 0 nan nan nan nan nan nan nan nan nan nan nan nan 0 1 1 1 2 2 2 2 3 4 4 6 8 4 2 2 0 0 0 0 0 0 0 0 0 nan nan nan nan 0 0 0 0 0 1 1 2 1 0 0 nan nan nan nan nan nan nan nan
nan nan nan nan nan nan nan nan nan nan nan nan nan nan nan nan nan nan 0 0 0 1 1 0 0 0 nan nan nan nan nan nan nan nan nan nan 0 0 1 1 1 2 3 2 2 2 1 0 0 0 3 7 3 3 0 0 0 0 0 0 0 0 0 nan nan 0 0 0 2 2 0 1 1 1 1 2 1 1 0 nan nan nan nan nan nan nan
CIN
-0 -0 -0 -0 -0 -0 -0 -0 -0 -0 -0 -0 -0 -0 -0 -0 -0 -0 -0 -0 -0 -0 -0 -0 -0 -0 nan nan -0 -0 -0 -0 -0 -0 -0 -0 -0 -0 -0 -0 -0 -0 -0 -0 -0 -0 -0 -0 -0 -0 -0 -0 -0 -0 -0 -0 -0 -0 -0 -0 -0 -0 -0 -0 -0 -0 -0 -0 -0 -0 -0 -0 -0 -0 -0 -0 -0 -0 -0 -0 -0 -0 -0 -0 -0 -0
-0 -0 -0 -0 -0 -0 -0 -0 -0 -0 -0 -0 -0 -0 -0 -0 -0 -0 -0 -0 -0 -0 -0 -0 -0 -0 -0 -0 -0 -0 -0 -0 -0 -0 -0 -0 -0 -0 -0 -0 -0 -0 -0 -0 -0 -0 -0 -0 -0 -0 -0 -0 -0 -0 -0 -0 -0 -0 -0 -0 -0 -0 -0 -0 -0 -0 -0 -0 -0 -0 -0 -0 -0 -0 -0 -0 -0 -0 -0 -0 -0 -0 -0 -0 -0 -0
-0 -0 -0 -0 -0 -0 -0 -0 -0 -0 -0 -0 -0 -0 -0 -0 -0 -0 -0 -0 -0 -0 -0 -0 -0 -0 -0 -0 -0 -0 -0 -0 -0 -0 -0 -0 -0 -0 -0 -0 -0 -0 -0 -0 -0 -0 -0 -0 -0 -0 -0 -0 -0 -0 -0 -0 -0 -0 -0 -0 -0 -0 -0 -0 -0 -0 -0 -0 -0 -0 -0 -0 -0 -0 -0 -0 -0 -0 -0 -0 -0 -0 -0 -0 -0 -0
-0 -0 -0 -0 -0 -0 -0 -0 -0 -0 -0 -0 -0 -0 -0 -0 -0 -0 -0 -0 -0 -0 -0 -0 -0 -0 -0 -0 -0 -0 -0 -0 -0 -0 -0 -0 -0 -0 -0 -0 -0 -0 -0 -0 -0 -0 -0 -0 -0 -0 -0 -0 -0 -0 -0 -0 -0 -0 -0 -0 -0 -0 -0 -0 -0 -0 -0 -0 -0 -0 -0 -0 -0 -0 -0 -0 -0 -0 -0 -0 -0 -0 -0 -0 -0 -0
-0 -0 -0 -0 -0 -0 -0 -0 -0 -0 -0 -0 -0 -0 -0 -0 -0 -0 -0 -0 -0 -0 -0 -0 -0 -0 -0 -0 -0 -0 -0 -0 -0 -0 -0 -0 -0 -0 -0 -0 -0 -0 -0 -0 -0 -0 -0 -0 -0 -0 -0 -0 -0 -0 -0 -0 -0 -0 -0 -0 -0 -0 -0 -0 -0 -0 -0 -0 -0 -0 -0 -0 -0 -0 -0 -0 -0 -0 -0 -0 -0 -0 -0 -0 -0 -0
-0 -0 -0 -0 -0 -0 -0 -0 -0 -0 -0 -0 -0 -0 -0 -0 -0 -0 -0 -0 -0 -0 -0 -0 -0 -0 -0 -0 -0 -0 -0 -0 -0 -0 -0 -0 -0 -0 -0 -0 -0 -0 -0 -0 -0 -0 -0 -0 -0 -0 -0 -0 -0 -0 -0 -0 -0 -0 -0 -0 -0 -0 -0 -0 -0 -0 -0 -0 -0 -0 -0 -0 -0 -0 -0 -0 -0 -0 -0 -0 -0 -0 -0 -0 -0 -0
-0 -0 -0 -0 -0 -0 -0 -0 -0 -0 -0 -0 -0 -0 -0 -0 -0 -0 -0 -0 -0 -0 -0 -0 -0 -0 -0 -0 nan nan nan nan -0 -0 nan nan -0 -0 -0 -0 -0 nan nan nan nan nan nan nan nan nan nan -0 -0 -0 -0 -0 -0 -0 -0 -0 -0 -0 -0 -0 -0 -0 -0 -0 -0 -0 -0 -0 -0 -0 -0 -0 -0 -0 -0 -0 -0 -0 -0 -0 -0 -0
-0 -0 -0 -0 -0 -0 -0 -0 -0 -0 -0 -0 -0 -0 -0 -0 -0 -0 -0 nan nan nan nan nan nan nan nan nan nan nan nan nan nan nan nan nan nan nan nan nan nan nan nan nan nan nan nan nan nan nan nan nan nan nan -0 -0 -0 -0 -0 -0 -0 -0 -0 -0 -0 -0 -0 -0 -0 -0 -0 -0 -0 -0 -0 -0 -0 -0 -0 -0 -0 -0 -0 -0 -0 -0
-0 -0 -0 -0 -0 -0 -0 -0 -0 -0 -0 -0 -0 -0 -0 nan nan nan nan nan nan nan nan nan nan nan nan nan nan nan nan nan nan nan nan nan nan nan nan nan nan nan nan nan nan nan nan nan nan nan nan nan nan nan nan nan nan -0 -0 -0 -0 -0 -0 -0 -0 -0 -0 -0 -0 -0 -0 -0 -0 -0 -0 -0 -0 -0 -0 -0 -0 -0 -0 -0 -0 -0
-0 -0 -0 -0 -0 -0 -0 -0 -0 -0 -0 -0 nan nan nan nan nan nan nan nan nan nan nan nan nan nan nan nan nan nan nan nan nan nan nan nan nan nan nan nan nan nan nan nan nan nan nan nan nan nan nan nan nan nan nan nan nan -0 -0 -0 -0 -0 -0 -0 -0 -0 -0 -0 -0 -0 -0 -0 -0 -0 -0 -0 -0 -0 -0 -0 -0 -0 -0 -0 -0 -0
-0 -0 -0 -0 -0 -0 nan nan nan nan nan nan nan nan nan nan nan nan nan nan nan nan nan nan nan nan nan nan nan nan nan nan nan nan nan nan nan nan nan nan nan nan nan nan nan nan nan nan nan nan nan nan nan nan nan nan nan nan nan -0 -0 -0 -0 -0 -0 -0 -0 -0 -0 -0 -0 -0 -0 -0 -0 -0 -0 -0 -0 -0 -0 -0 -0 -0 -0 -0
nan nan nan nan nan nan nan nan nan nan nan nan nan nan nan nan nan nan nan nan nan nan nan nan nan nan nan nan nan nan nan nan nan nan nan nan nan nan nan nan nan nan nan nan nan nan nan nan nan nan nan nan nan nan nan nan nan nan nan nan nan nan -0 -0 -0 -0 -0 -0 -0 -0 -0 -0 -0 -0 -0 -0 -0 -0 -0 -0 -0 -0 -0 -0 -0 -0
nan nan nan nan nan nan nan nan nan nan nan nan nan nan nan nan nan nan nan nan nan nan nan nan nan nan nan nan nan nan nan nan nan nan nan nan nan nan nan nan nan nan nan nan nan nan nan nan nan nan nan nan nan nan nan nan nan nan nan nan nan nan nan nan nan -0 -0 -0 -0 -0 -0 -0 -0 -0 -0 -0 -0 -0 -0 -0 -0 -0 -0 -0 -0 -0
nan nan nan nan nan nan nan nan nan nan nan nan nan nan nan nan nan nan nan nan nan nan nan nan nan nan nan nan nan nan nan nan nan nan nan nan nan nan nan nan nan nan nan nan nan nan nan nan nan nan nan nan nan nan nan nan nan nan nan nan nan nan -0 -0 -0 -0 -0 -0 -0 -0 -0 -0 -0 -0 -0 -0 -0 -0 -0 -0 -0 -0 -0 -0 -0 -0
nan nan nan nan nan nan nan nan nan nan nan nan nan nan nan nan nan nan nan nan nan nan nan nan nan nan nan nan nan nan nan nan nan nan nan nan nan nan nan nan nan nan nan nan nan nan nan nan nan nan nan nan nan nan nan nan nan nan -0 -0 -0 -0 -0 -0 -0 -0 -0 -0 -0 -0 -0 -0 -0 -0 -0 -0 -0 -0 -0 -0 -0 -0 -0 -0 -0 -0
nan nan nan nan nan nan nan nan nan nan nan nan nan nan nan nan nan nan nan nan nan nan nan nan nan nan nan nan nan nan nan nan nan nan nan nan nan nan nan nan nan nan nan nan nan nan nan nan nan nan nan nan nan nan nan -0 -0 -0 -0 -0 -0 -0 -0 -0 -0 -0 -0 -0 -0 -0 -0 -0 -0 -0 -0 -0 -0 -0 -0 -0 -0 -0 -0 -0 -0 -0
nan nan nan nan nan nan nan nan nan nan nan nan nan nan nan nan nan nan nan nan nan nan nan nan nan nan nan nan nan nan nan nan nan nan nan nan nan nan nan nan nan nan nan nan nan nan nan nan nan nan nan nan nan nan nan -0 -0 -0 -0 -0 -0 -0 -0 -0 -0 -0 -0 -0 -0 -0 -0 -0 -0 -0 -0 -0 -0 -0 -0 -0 -0 -0 -0 -0 -0 -0
nan nan nan nan nan nan nan nan nan nan nan nan nan nan nan nan nan nan nan nan nan nan nan nan nan nan nan nan nan nan nan nan nan nan nan nan nan nan nan nan nan nan nan nan nan nan nan nan nan nan nan nan nan nan -0 -0 -0 -0 -0 -0 -0 -0 -0 -0 -0 -0 -0 -0 -0 -0 -0 -0 -0 -0 -0 -0 -0 -0 -0 -0 -0 -0 -0 -0 -0 -0
nan nan nan nan nan nan nan nan nan nan nan nan nan nan nan nan nan nan nan nan nan nan nan nan nan nan nan nan nan nan nan nan nan nan nan nan nan nan nan nan nan nan nan nan nan nan nan nan nan nan nan nan nan nan nan -0 -0 -0 -0 -0 -0 -0 -0 -0 -0 -0 -0 -0 -0 -0 -0 -0 -0 -0 -0 -0 -0 -0 -0 -0 -0 -0 -0 -0 -0 -0
nan nan nan nan nan nan nan nan nan nan nan nan nan nan nan nan nan nan nan nan nan nan nan nan nan nan nan nan nan nan nan nan nan nan nan nan nan nan nan nan nan nan nan nan nan nan nan nan nan nan nan nan nan nan nan -0 -0 -0 -0 -0 -0 -0 -0 -0 -0 -0 -0 -0 -0 -0 -0 -0 -0 -0 -0 -0 -0 -0 -0 -0 -0 -0 -0 -0 -0 -0
nan nan nan nan nan nan nan nan nan nan nan nan nan nan nan nan nan nan nan nan nan nan nan nan nan nan nan nan nan nan nan nan nan nan nan nan nan nan nan nan nan nan nan nan nan nan nan nan nan nan nan nan nan nan nan -0 -0 -0 -0 -0 -0 -0 -0 -0 -0 -0 -0 -0 -0 -0 -0 -0 -0 -0 -0 -0 -0 -0 -0 -0 -0 -0 -0 -0 -0 -0
nan nan nan nan nan nan nan nan nan nan nan nan nan nan nan nan nan nan nan nan nan nan nan nan nan nan nan nan nan nan nan nan nan nan -0 nan nan nan nan nan nan nan nan nan nan nan nan nan nan nan nan nan nan nan -0 -0 -0 -0 -0 -0 -0 -0 -0 -0 -0 -0 -0 -0 -0 -0 -0 -0 -0 -0 -0 -0 -0 -0 -0 -0 -0 -0 -0 -0 -0 -0
nan nan nan nan nan nan nan nan nan nan nan nan -3 -3 nan nan -0 -0 nan nan nan nan nan nan nan nan nan nan nan nan nan nan nan nan -0 nan nan nan nan nan nan nan nan nan nan nan nan nan nan nan nan nan nan nan -0 -0 -0 -0 -0 -0 -0 -0 -0 -0 -0 -0 -0 -0 -0 -0 -0 -0 -0 -0 -0 -0 -0 -0 -0 -0 -0 -0 -0 -0 -0 -0
nan nan nan nan nan nan nan nan nan nan nan nan nan nan nan nan nan nan nan nan nan nan nan nan nan nan nan nan nan nan nan nan nan nan nan nan nan nan nan nan nan nan nan nan nan nan nan nan nan nan nan nan nan nan -0 -0 -0 -0 -0 -0 -0 -0 -0 -0 -0 -0 -0 -0 -0 -0 -0 -0 -0 -0 -0 -0 -0 -0 -0 -0 -0 -0 -0 -0 -0 -0
nan nan nan nan nan nan nan nan nan nan nan nan nan nan nan nan nan nan nan nan nan nan nan nan nan nan nan nan nan nan nan nan nan nan nan nan nan nan nan nan nan nan nan nan nan nan nan nan nan nan nan nan nan nan -0 -0 -0 -0 -0 -0 -0 -0 -0 -0 -0 -0 -0 -0 -0 -0 -0 -0 -0 -0 -0 -0 -0 -0 -0 -0 -0 -0 -0 -0 -0 -0
nan -21 nan nan nan -22 -9 -0 -0 -0 nan nan nan nan nan nan nan nan nan nan nan nan nan nan nan nan nan nan nan nan nan nan nan nan nan nan nan nan nan nan nan nan nan nan nan nan nan nan nan nan nan nan nan nan nan -0 -0 -0 -0 -0 -0 -0 -0 -0 -0 -0 -0 -0 -0 -0 -0 -0 -0 -0 -0 -0 -0 -0 -0 -0 -0 -0 -0 -0 -0 -0
-0 -0 -0 -0 -0 -0 -0 -0 -0 -0 -0 -0 nan nan nan nan nan nan nan nan nan nan nan nan nan nan nan nan nan nan nan nan nan nan nan -0 nan nan nan nan nan nan nan nan nan nan nan nan nan nan nan nan nan nan nan nan nan -0 -0 -0 -0 -0 -0 -0 -0 -0 -0 -0 -0 -0 -0 -0 -0 -0 -0 -0 -0 -0 -0 -0 -0 -0 -0 -0 -0 -0
-1 -0 -0 -0 -0 -0 -0 nan -0 -0 -0 -0 -0 -0 -5 nan nan nan nan nan nan nan nan nan nan nan nan nan nan nan nan nan nan nan nan -0 nan nan nan nan nan nan nan nan nan nan nan nan nan nan nan nan nan nan nan nan nan nan nan nan nan nan -0 -0 -0 -0 -0 -0 -0 -0 -0 -0 -0 -0 -0 -0 -0 -0 -0 -0 -0 -0 -0 -0 -0 -0
nan nan nan nan nan nan nan nan nan nan -0 -0 -0 -0 -2 nan nan nan nan nan nan nan nan nan nan nan nan nan nan nan nan nan nan nan nan nan -0 -0 nan nan nan nan nan nan nan nan nan nan nan nan nan nan nan nan nan nan nan nan nan nan nan nan nan nan nan nan -0 -0 -0 -0 -0 -0 -0 -0 -0 -0 -0 -0 -0 -0 -0 -0 -0 -0 -0 -0
nan nan nan nan nan nan nan nan nan nan nan -0 -0 -0 -0 nan nan nan nan nan nan nan nan nan nan nan nan nan nan nan nan nan nan nan nan nan -0 -0 nan nan nan nan nan nan nan nan nan nan nan nan nan nan nan nan nan nan nan nan nan nan nan nan nan nan nan nan nan nan -0 -0 -0 -0 -0 -0 -0 -0 -0 -0 -0 -0 -0 -0 -0 -0 -0 -0
nan nan nan nan nan nan nan nan nan nan nan nan nan nan nan nan nan nan nan nan nan nan nan nan nan nan nan nan nan nan nan nan nan nan nan -0 -0 -0 nan -0 -0 nan nan -0 -0 nan nan nan nan nan nan nan nan nan nan nan nan nan nan nan nan nan nan nan nan nan nan nan nan nan nan -0 -0 -0 -0 -0 -0 -0 -0 -0 -0 -0 -0 -0 -0 -0
nan nan nan nan nan nan nan nan nan nan nan nan nan nan nan nan nan nan nan nan nan nan nan nan nan nan nan nan nan nan nan nan nan nan nan nan -0 -0 -0 -0 -0 -0 -0 -0 -0 -0 nan nan nan nan nan nan nan nan nan nan nan nan nan nan nan nan nan nan nan nan nan nan nan nan nan nan nan nan nan -0 -0 -0 -0 -0 -0 -0 -0 -0 -0 -0
nan nan nan nan nan nan nan nan nan nan nan nan nan nan nan nan nan nan nan nan nan nan nan nan nan nan nan -0 -0 -0 -0 nan nan nan nan nan -0 -0 -0 -0 -0 -0 -0 -0 -0 -0 -0 -0 -0 -0 nan nan nan nan nan nan nan nan nan nan nan nan nan nan nan nan nan nan nan nan nan nan nan nan nan nan -0 -0 -0 -0 -0 -0 -0 -0 -0 -0
nan nan nan nan nan nan nan nan nan nan nan nan nan nan nan nan nan nan nan nan nan nan nan nan nan nan nan nan -0 -0 -0 nan -0 -0 -0 nan -0 -0 -0 -0 -0 -0 -0 -0 -0 -0 -0 -0 -0 -0 nan nan nan nan nan nan nan nan nan nan nan nan nan nan nan nan nan nan nan nan nan nan nan nan nan nan nan nan -0 -0 -0 -0 -0 -0 -0 -0
nan nan nan nan nan nan nan nan nan nan nan nan nan nan nan nan nan nan nan nan nan nan nan nan nan nan nan nan nan nan nan nan nan nan nan nan nan nan -0 -0 -0 -0 -0 -0 -0 -0 -0 -0 -0 -0 -0 nan nan nan nan nan nan nan nan nan nan nan nan nan nan nan nan nan nan nan nan nan nan nan nan nan nan nan -0 -0 -0 -0 -0 -0 -0 -0
nan nan nan nan nan nan nan nan nan nan nan nan nan nan nan nan nan nan nan nan nan nan nan nan nan nan nan nan nan nan nan nan nan nan nan nan nan nan -0 -0 -0 -0 -0 -0 -0 -0 -0 -0 -0 -0 -0 -0 nan nan nan nan nan nan nan nan nan nan nan nan nan nan nan nan nan nan nan nan nan nan nan nan nan nan -0 -0 -0 -0 -0 -0 -0 -0
nan nan nan nan nan nan nan nan nan nan nan nan nan nan nan nan nan nan nan nan nan nan nan nan nan nan nan nan nan nan nan nan nan nan nan nan nan nan -0 -0 -0 -0 -0 -0 -0 -0 -0 -0 -0 -0 -0 nan nan nan nan nan nan nan nan nan nan nan nan nan nan nan nan nan nan nan nan nan nan nan nan nan -0 -0 -0 -0 -0 -0 -0 -0 -0 -0
nan nan nan nan nan nan nan nan nan nan nan nan nan nan nan nan nan nan nan nan nan nan nan nan nan nan nan nan nan nan nan nan nan nan nan nan nan nan -0 -0 -0 -0 -0 -0 -0 -0 -0 -0 -0 -0 nan nan -0 -0 -0 -0 -0 -0 nan nan nan nan nan nan nan nan nan nan nan nan nan nan nan nan nan nan nan nan nan nan nan nan -0 -0 -0 -0
nan nan nan nan nan nan nan nan nan nan nan nan nan nan nan nan nan nan nan nan nan nan nan nan nan nan nan nan nan nan nan nan nan nan nan nan nan nan nan -0 -0 -0 -0 -0 -0 -0 -0 -0 -0 -0 -0 nan -0 -0 nan -0 -0 -0 -0 nan nan nan nan -0 -0 nan nan nan nan nan nan nan nan nan nan nan nan nan nan nan nan nan nan nan nan -0
nan nan nan nan nan nan nan nan nan nan nan nan nan nan nan nan nan nan nan nan nan nan nan nan nan nan nan nan nan nan nan nan nan nan nan nan nan nan nan -0 -0 -0 -0 -0 -0 -0 -0 -0 -0 -0 -0 -0 -0 -0 -0 -0 -0 -0 -0 -0 -0 -0 nan -0 -0 nan nan nan nan nan nan nan nan nan nan nan nan nan nan nan nan nan nan nan nan nan
nan nan nan nan nan nan nan nan nan nan nan nan nan nan nan nan nan nan nan nan nan nan nan nan nan nan nan nan nan nan nan nan nan nan nan nan nan nan nan -0 -0 -0 -0 -0 -0 -0 -0 -0 -0 -0 -0 -0 -0 -0 -0 -0 -0 -0 -0 -0 -0 -0 -0 -0 -0 -0 nan nan nan nan nan nan nan nan nan nan nan nan nan nan nan nan nan nan nan nan
nan nan nan nan nan nan nan nan nan nan nan nan nan nan nan nan -0 -0 nan -0 -0 nan nan nan nan -0 -0 nan nan nan nan nan nan nan nan nan nan nan nan -5 -5 -0 -0 -0 -0 -0 -0 -0 -0 -0 -0 -0 -0 -0 -0 -0 -0 -0 -0 -0 -0 -0 -0 -0 -0 -0 nan nan nan nan nan nan nan nan nan nan nan nan nan nan nan nan nan nan nan nan
nan nan nan nan nan nan nan nan nan nan nan nan nan nan -0 -0 -0 -0 nan nan nan nan -0 -0 -0 -0 -0 nan nan nan nan nan nan nan nan nan nan nan nan nan nan -1 -0 -0 -0 -0 -0 -0 -0 -0 -0 -0 -0 -0 -0 -0 -0 -0 -0 -0 -0 -0 -0 nan nan nan nan nan nan nan nan nan nan nan nan nan nan nan nan nan nan -0 -0 nan nan nan
nan nan nan nan nan nan nan nan nan nan nan nan -0 -0 -0 -0 -0 -0 -0 -0 -0 -0 -0 -0 -0 -0 -0 nan nan nan nan -0 nan nan nan -13 nan nan nan nan nan nan -2 -0 -0 -0 -0 -0 -0 -0 -0 -0 -0 -0 -0 -0 -0 -0 -0 -0 -0 -0 -0 nan nan nan nan nan nan nan nan nan nan nan nan nan nan nan nan nan nan nan nan nan nan nan
nan nan nan nan nan nan nan nan nan nan nan nan -0 -0 nan nan nan nan -0 -0 -0 -0 -0 -0 -0 -0 nan nan nan nan nan nan -0 -0 nan -1 -2 -2 -6 nan nan nan -6 nan nan -0 -0 -0 -0 -0 -0 -0 -0 -0 -0 -0 -0 -0 -0 -0 -0 -0 -0 -0 -0 -0 -0 nan nan nan nan nan nan nan nan nan nan nan nan nan nan nan nan nan nan nan
nan nan nan nan nan nan nan nan nan nan nan -0 -0 -0 nan nan nan nan -0 -0 -0 -0 -0 -0 -0 -0 nan nan nan nan nan nan nan nan nan nan -3 -3 -0 -0 -0 -0 -0 nan nan -0 -0 -0 -0 -0 -0 -0 -0 -0 -0 -0 -0 -0 -0 -0 -0 -0 -0 -0 -0 nan nan nan nan nan nan -0 -0 -0 -0 nan nan nan nan nan nan nan nan nan nan nan
nan nan nan nan nan nan nan nan -0 -0 -0 -0 -0 -0 -0 -0 -0 -0 -0 -0 -0 -0 -0 -0 -0 -0 -0 nan nan nan nan nan nan nan nan nan nan nan nan -3 -3 -0 -0 -0 -0 -0 -0 -0 -0 -0 -0 -0 -0 -0 -0 -0 -0 -0 -0 nan nan -0 nan nan nan nan nan nan nan nan nan -0 -0 -0 -0 -0 -0 -0 nan nan nan -0 -0 -0 -0 nan
nan nan nan nan nan nan -0 -0 -0 -0 -0 -0 -0 -0 -0 -0 -0 -0 -0 -0 -0 -0 -0 -0 -0 -0 nan nan nan nan nan nan nan nan nan nan nan nan nan nan nan -2 -0 -0 -0 -0 -0 -0 -0 -0 -0 -0 -0 -0 -0 -0 -0 -0 -0 -0 -0 nan nan nan nan nan nan -0 -0 -0 -0 -0 -0 -0 -0 -0 nan nan nan nan nan nan nan nan nan nan
nan nan nan nan nan nan nan nan nan nan nan nan nan nan nan -0 -0 -0 -0 -0 -0 -0 -0 -0 -0 -0 nan nan nan nan nan -0 nan nan nan nan nan nan -1 nan nan nan -0 -0 -0 -0 -0 -0 -0 -0 -0 -0 -0 -0 -0 nan nan -0 -0 -0 -0 -0 nan nan nan nan nan -0 nan nan nan nan -0 -0 -0 -0 -0 -0 nan nan nan nan nan nan nan nan
nan nan nan nan nan nan nan nan nan nan nan nan nan nan nan nan -0 -0 -0 -0 -0 -0 -0 -0 -0 -0 nan nan nan nan nan nan nan nan nan nan nan nan -0 -0 -0 -0 -0 -0 -0 -0 -0 -0 -0 -0 -0 -0 -0 -0 -0 -0 -0 -0 -0 -0 -0 -0 -0 nan nan nan nan -0 -4 -4 -0 -0 -0 -0 -0 -0 -0 -0 nan nan nan nan nan nan nan nan
nan nan nan nan nan nan nan nan nan nan nan nan nan nan nan nan nan nan -0 -0 -0 -0 -0 -0 -0 -0 nan nan nan nan nan nan nan nan nan nan -0 -0 -0 -0 -0 -0 -0 -0 -0 -0 -0 -0 -0 -0 -0 -0 -0 -0 -0 -0 -0 -0 -0 -0 -0 -0 -0 nan nan -0 -0 -0 -0 -0 -1 -0 -0 -0 -0 -0 -0 -0 -0 nan nan nan nan nan nan nan
Wind_Speed
1 2 2 2 2 2 3 3 3 3 2 2 2 2 3 3 4 4 5 5 4 4 4 4 4 4 4 5 5 5 5 6 6 7 7 6 5 4 3 3 4 5 6 6 7 7 7 7 6 6 6 7 7 8 8 9 9 9 9 9 10 10 10 10 10 10 10 9 9 9 8 8 7 7 7 7 7 8 8 8 8 9 9 9 9 9
1 1 2 3 3 2 2 3 3 3 2 2 2 2 2 3 3 3 3 4 4 3 3 3 3 4 4 4 5 5 6 6 7 7 7 6 5 4 4 4 5 5 6 6 7 6 6 5 5 5 6 6 7 8 8 8 9 9 9 9 9 9 10 10 10 9 9 9 9 8 8 7 7 7 7 7 8 8 8 8 9 9 9 10 10 10
1 1 2 2 3 3 2 3 3 2 2 2 2 2 2 3 2 2 2 2 3 3 3 3 3 3 3 3 4 5 5 6 6 7 6 5 5 4 4 5 5 6 6 6 5 5 4 4 5 5 6 6 7 8 8 9 9 9 9 9 9 9 9 9 9 9 8 8 8 7 7 7 7 7 7 7 8 8 8 8 9 9 9 9 10 10
1 1 2 2 2 3 2 2 2 2 2 2 2 2 2 2 2 2 2 2 2 2 2 2 2 2 2 3 3 4 5 5 6 6 5 5 4 4 5 5 5 5 5 5 4 4 4 5 6 6 7 7 8 8 9 9 9 9 9 9 9 9 9 8 8 8 7 7 7 6 6 6 7 7 7 8 8 8 8 8 8 8 9 9 9 10
1 2 2 2 2 2 2 2 2 2 2 2 2 2 2 2 2 1 1 1 1 2 2 2 2 2 2 2 2 3 4 5 5 5 5 5 5 5 5 5 4 4 4 4 4 4 5 6 7 7 8 8 9 9 9 9 9 9 9 9 9 8 8 8 7 7 6 6 6 6 6 7 7 7 8 8 8 8 9 9 9 9 9 9 9 9
2 2 2 1 1 1 2 2 2 2 2 2 2 2 2 2 1 1 1 1 1 1 1 1 1 1 1 2 2 3 4 5 6 6 6 5 5 5 4 4 3 3 3 4 4 5 6 7 8 8 9 9 9 10 10 10 10 9 9 9 8 8 7 7 7 6 6 6 6 6 7 7 8 8 8 8 9 9 9 9 9 9 9 9 9 9
1 2 1 1 1 1 1 1 2 2 1 1 1 2 2 1 1 1 1 1 1 1 1 1 1 1 1 2 3 3 4 5 5 5 5 5 4 4 3 3 3 3 4 4 5 6 7 8 9 9 10 10 10 10 10 10 10 10 9 9 8 8 8 7 7 7 7 7 7 7 7 8 8 8 9 9 9 9 9 9 9 10 10 10 10 10
1 1 1 1 1 1 1 1 1 2 2 1 1 1 1 1 1 1 1 1 1 1 1 1 1 1 1 2 2 3 3 3 3 3 3 3 3 3 3 3 4 4 5 5 6 7 8 9 9 10 10 11 11 11 11 11 11 10 10 9 9 9 8 8 8 7 7 8 8 8 8 9 9 9 9 10 10 10 10 10 10 10 10 10 10 10
2 1 1 1 1 1 1 1 1 2 2 2 1 1 1 1 1 1 1 1 1 2 2 1 1 1 1 2 2 2 3 2 2 1 1 1 1 1 2 3 4 5 6 6 7 8 9 9 10 10 11 11 11 11 11 11 11 11 10 10 10 9 9 9 9 9 9 9 9 9 9 9 10 10 10 10 10 10 10 10 10 10 10 10 10 10
2 2 1 1 1 1 1 1 1 2 2 2 2 2 2 2 2 1 1 1 1 2 1 1 2 2 1 1 2 2 2 2 2 2 2 2 2 2 3 3 4 5 6 7 8 9 9 10 10 11 11 11 11 11 11 11 11 11 11 10 10 10 10 10 10 10 10 10 10 10 10 11 11 11 11 11 11 10 10 10 10 10 10 10 11 11
1 1 1 1 1 1 1 1 1 1 2 1 1 1 2 2 2 2 2 2 2 2 1 1 1 2 2 2 2 2 2 2 2 2 3 4 4 4 4 4 5 6 7 7 8 9 10 10 11 11 11 11 11 11 11 11 11 11 11 11 11 11 11 11 11 11 11 11 12 12 12 12 12 11 11 11 11 11 10 10 10 10 10 11 11 11
1 1 1 1 1 1 1 1 1 1 1 1 1 1 2 2 2 2 2 2 2 2 2 1 1 1 1 2 2 2 2 2 2 2 2 3 3 4 4 3 4 5 6 6 7 8 9 10 11 11 10 10 10 10 10 10 10 11 11 12 12 12 12 12 12 13 13 13 13 13 13 12 12 12 11 11 11 10 10 10 10 10 10 10 11 11
1 1 1 1 1 1 1 1 1 1 1 1 1 1 1 2 1 1 1 1 1 2 2 2 1 1 1 1 2 2 2 2 2 1 1 1 2 2 2 2 3 3 4 4 5 6 8 9 9 9 9 9 9 9 10 10 10 11 11 12 12 13 13 13 13 13 13 13 13 13 13 12 12 11 11 11 10 10 10 10 10 10 10 10 10 11
1 1 0 1 1 1 1 1 1 1 1 1 1 1 1 1 1 1 0 0 1 1 1 2 1 0 1 1 1 2 2 2 1 1 1 1 1 2 2 2 2 3 3 4 4 5 7 7 7 7 8 8 8 9 8 9 10 10 11 12 12 13 13 13 13 13 13 13 13 13 12 12 11 11 11 10 10 10 10 10 10 10 10 10 10 11
1 1 1 1 1 1 1 1 1 1 1 1 1 1 1 1 1 1 1 1 1 1 1 1 1 0 1 1 1 2 2 2 1 2 2 2 1 1 1 2 3 3 3 4 4 5 6 5 5 5 6 7 7 8 8 9 9 10 11 11 12 12 13 13 13 13 13 13 13 12 12 11 11 11 10 10 10 10 10 10 10 10 10 10 10 11
0 0 1 1 0 0 0 1 0 0 1 1 1 1 1 0 1 1 1 1 1 1 1 1 1 1 0 1 1 1 2 2 2 2 3 3 2 1 1 2 4 4 4 4 4 4 5 4 4 4 5 6 8 9 9 9 9 10 10 11 11 12 12 12 12 12 12 12 12 12 11 11 11 11 10 10 10 10 10 10 10 10 10 10 11 11
0 0 1 0 0 0 0 1 1 1 1 1 1 1 1 1 1 1 0 0 0 1 1 1 1 1 1 0 1 2 2 2 2 2 3 4 3 1 1 2 4 5 4 4 4 4 4 4 4 4 4 6 8 9 9 9 10 10 10 11 11 11 11 12 12 12 12 12 11 11 11 11 11 11 11 10 10 10 10 10 10 10 11 11 11 11
0 0 0 0 0 0 0 0 1 1 1 0 0 0 1 1 1 1 0 0 0 0 0 0 0 1 1 1 1 1 2 2 2 3 4 5 4 2 1 1 3 4 4 4 4 4 4 4 4 4 5 7 9 9 10 10 10 11 11 11 11 12 12 12 12 12 12 12 11 11 11 11 11 11 11 11 11 10 10 10 11 11 11 11 11 11
0 0 0 0 0 0 0 1 1 1 1 0 0 0 0 0 0 0 1 1 0 0 0 0 0 0 1 2 1 1 1 1 2 4 4 5 4 2 1 1 2 3 4 4 4 4 4 4 4 5 7 9 10 10 11 11 12 12 12 12 13 13 13 13 12 12 12 12 12 12 12 12 11 11 11 11 11 11 11 11 11 11 11 11 11 11
1 1 1 1 0 0 0 0 1 1 1 1 1 0 0 0 0 0 0 0 0 0 0 0 1 1 1 2 1 0 1 0 2 3 4 5 4 2 1 1 2 3 3 4 4 4 3 3 4 5 7 9 10 11 12 13 13 13 13 13 13 13 13 13 13 13 13 13 12 12 12 12 12 12 11 11 11 11 11 11 11 11 11 11 11 12
1 1 1 1 1 0 0 0 0 1 1 1 1 1 0 0 0 0 0 0 0 0 0 1 1 1 1 2 1 0 1 0 2 3 3 3 3 2 1 1 1 2 4 4 3 3 3 3 3 4 5 9 11 12 13 13 14 14 14 14 14 14 14 13 13 13 13 13 13 13 13 12 12 12 12 11 11 11 11 11 11 11 11 11 12 12
1 1 1 2 1 1 0 0 1 2 2 2 1 1 0 0 0 0 0 1 1 1 2 2 2 2 1 2 2 1 1 1 2 2 2 3 3 2 0 0 1 2 4 4 3 2 2 3 3 4 7 10 12 13 13 13 13 13 13 13 13 13 13 13 13 13 13 13 13 13 13 13 12 12 12 11 11 10 10 10 11 11 11 12 12 13
1 1 1 2 2 1 1 1 1 1 2 2 1 1 1 1 1 1 1 1 1 2 2 2 2 2 2 3 2 2 1 2 2 2 2 3 3 2 0 0 1 2 4 4 3 3 3 3 4 5 7 10 11 12 12 12 12 11 11 12 12 12 12 12 12 12 13 13 13 12 12 12 12 11 11 10 10 10 10 10 11 11 12 12 13 13
1 1 1 2 2 2 1 1 1 2 2 2 1 1 1 1 1 1 1 1 1 1 1 1 2 3 3 3 3 2 2 2 2 2 2 3 3 2 1 0 2 4 5 4 3 3 4 4 5 5 5 7 9 9 9 9 9 9 9 9 9 10 10 10 11 11 11 11 11 11 11 11 10 10 10 9 10 10 10 11 11 12 12 13 13 13
2 2 2 2 3 4 3 2 2 2 2 2 2 2 1 2 1 1 0 1 1 1 1 3 4 4 4 3 2 1 2 2 2 2 2 2 3 2 1 0 2 3 5 4 3 3 4 5 5 5 4 5 6 7 7 7 7 7 8 8 8 8 8 8 8 9 9 9 9 9 9 9 9 9 9 9 10 10 11 11 12 12 13 13 13 13
3 3 3 3 4 3 3 2 2 2 1 1 2 2 2 1 1 1 1 2 2 2 3 4 5 5 4 3 2 2 1 2 2 2 2 2 3 3 2 1 1 2 4 4 4 4 5 6 5 4 3 3 4 5 6 7 7 8 8 9 9 9 9 9 9 9 8 8 8 8 8 8 9 9 9 10 10 11 11 12 12 12 13 13 13 13
2 2 2 1 0 2 3 5 6 7 7 6 5 3 1 1 1 1 2 2 2 2 3 4 5 4 3 3 2 2 1 1 2 2 2 2 3 3 2 1 0 1 3 4 4 5 6 6 5 4 2 2 2 3 5 7 8 8 9 10 10 10 10 10 10 9 9 9 9 9 9 9 9 9 10 10 10 11 11 12 12 13 13 12 12 11
4 4 4 4 4 5 5 5 6 7 8 10 10 8 3 1 2 3 4 2 2 2 3 4 4 4 3 3 2 2 1 1 1 1 1 1 2 2 1 0 0 1 3 4 5 5 5 4 4 3 2 2 2 3 5 6 8 9 9 10 10 10 10 10 10 9 9 9 9 9 9 10 10 10 10 10 11 11 11 12 12 12 12 11 9 8
5 5 5 4 4 4 4 4 5 6 8 9 10 10 5 2 3 4 4 2 2 2 4 4 4 4 3 3 3 3 3 2 0 1 1 1 1 1 1 1 1 1 2 4 4 4 2 2 2 1 2 2 2 3 4 5 6 7 8 9 9 9 9 9 9 9 9 9 9 9 9 10 10 10 10 10 11 11 11 12 12 11 9 8 7 7
3 3 3 3 3 3 3 3 4 5 7 8 9 9 6 3 3 3 3 2 2 3 4 4 4 4 3 3 3 3 2 1 1 1 2 1 1 1 1 1 1 1 2 3 4 3 2 1 1 1 1 2 3 3 3 4 5 5 6 7 7 7 8 8 9 9 9 9 9 9 9 10 10 10 10 11 11 11 12 12 11 10 7 7 6 6
1 1 2 2 2 2 3 3 3 4 5 6 7 6 4 2 2 2 2 2 3 3 4 4 4 3 3 2 2 2 1 0 1 2 2 1 1 1 1 2 2 1 1 2 3 3 3 2 1 1 2 3 3 4 4 5 5 4 4 4 5 5 7 8 8 8 8 9 9 9 10 10 10 10 11 11 11 11 12 12 11 9 7 6 6 6
1 1 1 2 2 2 2 2 3 3 3 3 3 2 2 1 1 2 2 2 3 3 3 3 3 3 3 3 3 2 1 0 2 3 3 1 1 1 1 2 2 2 1 2 2 3 3 3 2 2 2 3 4 4 5 5 4 4 4 4 3 4 6 7 7 8 8 8 9 9 10 10 10 11 11 11 11 11 12 12 11 9 7 6 6 6
1 1 2 2 2 2 2 2 2 2 2 2 1 1 1 1 1 1 2 2 2 2 3 3 3 3 3 3 3 3 2 1 2 3 3 1 1 1 2 2 3 3 2 2 3 3 3 3 3 4 4 4 4 4 4 4 4 4 3 3 3 4 5 6 6 6 7 7 8 8 9 10 10 10 11 11 11 11 11 11 11 9 8 6 6 6
1 2 2 2 2 2 2 2 2 2 2 1 1 0 0 0 1 1 1 2 2 2 2 2 2 2 2 2 2 3 2 1 1 2 2 1 1 2 2 3 3 3 3 3 3 3 4 4 4 4 4 4 4 3 3 3 3 3 2 2 3 3 4 5 5 5 6 6 6 6 6 7 8 9 9 10 10 10 10 11 11 10 10 8 7 6
1 2 2 2 2 2 2 2 1 1 1 1 1 0 0 0 1 1 1 2 2 2 2 2 2 2 2 2 2 2 3 1 1 1 1 1 2 2 3 3 3 4 3 4 3 3 3 4 5 5 5 4 4 3 2 2 2 2 2 2 3 3 4 4 5 5 6 5 5 5 5 5 5 6 7 8 9 10 11 11 11 11 11 10 9 8
2 2 2 1 1 1 1 1 1 1 1 1 1 1 1 0 0 1 1 1 1 2 2 2 2 2 2 2 2 3 3 2 2 3 3 2 2 2 3 3 4 4 4 4 4 4 4 4 5 6 6 5 5 3 2 1 1 1 2 3 3 4 4 4 5 5 5 5 5 5 4 4 4 5 5 7 9 10 11 11 12 12 12 12 12 10
2 2 2 1 1 1 1 1 1 1 1 1 1 1 1 1 1 1 1 1 1 1 2 2 2 2 3 3 3 4 4 3 3 4 4 3 3 3 3 4 4 4 4 4 4 4 4 5 5 5 5 5 4 4 3 2 2 3 3 4 4 5 5 5 5 5 5 5 5 5 5 5 5 5 5 7 9 10 10 11 11 11 12 12 13 13
2 2 2 1 1 1 1 1 1 1 1 1 1 1 2 2 2 2 2 1 1 1 1 2 2 3 4 5 5 5 5 5 5 5 6 4 4 3 4 4 4 5 4 4 4 5 5 5 5 5 5 4 5 5 5 4 4 4 5 5 5 5 5 5 5 5 4 5 5 5 6 5 5 5 5 6 6 6 7 7 7 9 10 11 12 13
2 2 2 1 1 1 1 1 1 1 1 1 2 2 2 2 2 2 2 1 1 2 2 2 2 3 4 5 5 6 6 6 6 6 6 5 4 4 4 4 4 5 4 4 4 5 5 5 5 5 5 5 5 5 5 4 5 5 5 5 5 5 5 4 4 4 4 5 5 6 6 5 5 5 5 5 5 5 5 5 6 6 7 7 8 10
2 2 2 2 2 2 2 2 2 2 2 2 2 2 2 2 2 2 2 2 2 2 3 3 3 3 3 4 5 5 6 5 5 5 5 4 4 4 4 4 4 4 4 4 4 5 5 5 6 6 6 5 5 5 5 5 5 5 6 5 4 4 4 4 4 5 5 5 5 5 5 5 5 5 5 5 5 5 5 5 5 5 6 6 6 6
2 2 2 2 2 2 3 3 3 3 2 2 2 2 2 2 1 1 1 2 2 2 2 2 2 3 3 3 4 4 5 5 5 5 4 5 5 5 4 4 4 4 4 4 5 5 5 6 6 6 6 6 6 6 6 6 6 7 7 6 5 5 5 6 6 5 5 5 5 5 5 5 6 5 5 5 5 5 5 5 6 6 6 6 5 6
3 3 2 2 2 2 3 3 3 3 3 2 2 3 3 2 2 1 2 2 2 2 2 2 3 3 4 4 4 4 4 4 5 5 5 5 6 6 5 5 4 4 4 5 5 5 5 6 6 6 6 6 6 6 6 6 6 7 6 6 6 7 7 6 5 4 4 4 4 4 5 5 5 6 6 6 6 6 6 6 7 7 7 6 6 6
3 3 3 2 2 2 2 3 3 3 3 3 3 3 3 2 2 2 3 3 3 3 3 3 3 3 4 4 4 3 3 4 4 5 5 6 6 6 6 6 5 5 4 4 5 5 6 6 6 6 6 6 6 6 7 7 7 7 6 7 6 6 4 4 3 3 3 4 5 5 5 5 5 5 6 6 6 6 6 7 8 9 8 7 7 7
3 3 3 2 2 2 2 2 2 2 3 3 3 3 3 3 3 3 3 3 3 3 3 2 3 3 4 4 4 3 3 3 3 4 5 6 6 7 6 7 6 6 5 5 4 4 5 5 6 6 6 6 6 7 7 7 7 7 6 7 6 6 5 4 4 5 5 5 5 5 5 5 5 6 6 6 6 7 6 7 7 7 8 7 7 7
2 2 2 2 2 2 2 2 2 2 3 3 3 3 3 3 3 3 3 3 3 3 3 3 3 3 3 3 3 3 2 2 2 3 4 5 7 7 7 6 6 6 6 6 5 5 5 5 5 5 5 5 6 7 7 7 7 7 7 7 7 7 7 6 6 6 6 6 6 5 5 5 5 6 6 6 7 6 6 6 7 7 7 7 7 8
1 2 2 2 2 2 3 3 2 2 3 3 3 3 3 3 3 3 4 4 4 3 3 3 3 3 3 3 3 3 3 3 3 3 3 3 4 5 6 6 5 5 5 5 6 6 6 5 5 5 5 6 6 7 8 8 7 7 7 7 7 7 7 7 7 6 6 6 6 6 6 6 6 6 6 7 7 7 6 7 7 7 7 7 7 7
2 2 2 2 2 2 3 2 2 3 3 3 3 3 3 3 3 3 4 4 4 4 3 3 3 3 4 3 3 3 3 3 3 3 3 3 3 3 4 4 5 5 5 5 6 6 7 7 6 6 6 6 7 7 7 7 7 7 7 7 7 7 7 7 6 6 6 6 6 6 6 6 6 6 7 7 7 7 7 7 7 7 7 7 7 7
2 3 3 3 3 3 3 3 3 3 3 3 3 3 3 3 4 4 4 4 3 3 3 3 3 4 4 4 4 4 4 4 4 3 3 3 3 3 3 3 4 4 5 6 6 7 7 7 8 8 7 7 7 7 8 7 7 7 7 7 7 7 7 7 6 6 6 6 6 6 6 5 6 6 7 7 7 7 7 7 7 7 7 7 7 7
3 3 3 3 3 3 3 3 3 3 4 4 4 3 3 4 5 5 4 3 3 3 3 3 4 4 4 4 4 4 5 4 4 4 3 3 3 3 3 3 3 3 4 5 5 6 7 8 9 9 9 8 8 8 8 8 7 7 6 6 6 7 7 7 7 6 6 6 6 6 5 5 6 6 7 8 8 9 9 8 8 7 7 7 7 7
3 3 3 3 4 4 4 4 4 4 4 4 4 4 4 4 4 4 4 3 3 3 3 4 4 4 5 4 4 4 4 4 4 4 3 3 3 3 3 3 3 4 4 4 4 4 5 5 7 9 11 11 11 9 8 8 7 7 7 6 6 6 7 7 7 7 7 7 6 6 6 6 6 6 6 7 9 10 10 9 8 7 7 6 7 7
3 3 3 3 3 4 4 4 4 4 4 4 4 4 4 4 4 4 4 4 4 4 4 4 4 5 5 5 5 4 4 4 4 4 4 3 3 3 3 3 3 4 4 3 3 3 3 3 4 5 7 11 13 12 9 8 7 7 6 6 6 6 6 6 7 7 7 7 7 6 6 6 6 6 6 7 8 9 10 9 9 8 7 6 6 7
Wind_Direction
36 31 28 25 33 44 36 23 26 42 59 55 51 46 44 46 47 48 48 46 45 44 44 43 39 35 29 18 7 354 340 329 320 314 309 305 298 286 268 257 251 252 256 260 262 264 267 269 273 277 280 282 282 282 281 280 280 280 279 279 279 279 279 279 280 281 282 285 288 292 296 302 306 311 314 312 310 307 304 301 299 298 296 295 293 292
43 44 39 34 40 45 41 25 27 37 55 60 59 55 51 52 51 49 47 44 41 38 36 34 30 26 21 10 355 342 331 320 312 307 305 304 300 293 280 268 262 262 265 266 267 267 269 268 271 275 276 276 278 281 281 283 285 286 287 286 287 287 287 287 287 288 289 292 295 299 304 309 313 315 316 313 311 308 304 302 301 300 298 296 294 291
37 44 43 37 39 40 35 24 25 33 48 60 65 65 62 61 57 51 44 40 35 32 31 25 20 14 9 2 348 336 326 316 309 306 308 311 311 306 294 285 279 277 279 281 282 285 290 292 294 294 293 291 291 290 290 291 291 291 291 290 289 289 288 288 288 289 290 292 296 301 306 309 312 313 311 309 306 304 302 302 302 302 301 298 295 292
39 42 38 35 37 39 31 22 21 27 38 52 62 68 65 63 58 52 42 32 24 21 25 18 13 6 1 355 346 335 322 314 311 312 318 319 317 310 301 295 291 291 293 297 303 310 316 316 314 311 308 305 303 301 299 297 294 293 291 289 289 288 286 286 286 286 287 290 294 298 302 304 304 303 302 301 299 298 297 297 299 300 298 295 292 289
48 43 35 30 34 37 32 24 21 25 31 38 46 52 55 54 52 48 38 28 22 18 18 11 7 2 353 349 341 331 319 316 318 322 326 325 321 314 307 303 302 303 309 318 325 329 329 325 322 319 315 312 310 307 305 301 298 296 294 292 292 291 289 288 288 288 288 291 294 296 298 297 296 295 295 294 293 292 292 292 292 292 290 287 285 284
55 45 37 34 33 34 29 25 25 26 29 31 35 37 39 42 46 44 38 31 26 22 20 13 8 359 349 344 336 329 324 323 325 329 330 328 324 320 317 318 321 327 334 337 337 336 332 328 325 321 318 316 313 311 309 307 305 303 303 302 302 301 298 296 294 292 292 294 295 295 295 294 293 292 291 290 289 288 287 286 285 283 280 278 277 276
68 52 43 41 40 39 36 31 26 23 23 31 37 40 40 43 45 44 38 32 26 22 16 11 2 353 347 348 339 333 328 327 328 329 330 330 330 331 333 339 345 348 347 343 340 336 333 329 325 321 318 315 313 311 309 308 308 308 309 309 309 308 304 300 297 295 294 294 293 293 292 291 289 288 287 286 284 283 282 280 279 278 276 274 272 271
83 67 51 47 46 48 46 40 28 19 10 16 32 41 44 53 59 58 54 46 33 20 6 359 345 343 2 3 350 338 329 325 323 325 327 338 347 352 352 356 356 353 349 344 341 337 333 329 324 319 315 312 309 307 305 305 306 307 308 308 308 306 302 299 296 293 292 291 290 289 288 287 285 283 282 280 278 277 276 275 275 274 274 273 272 270
87 78 61 45 38 41 56 50 34 18 2 3 10 18 19 30 51 80 100 76 52 31 8 351 342 347 18 17 1 343 331 321 315 310 323 33 34 18 7 5 359 354 348 345 342 338 334 329 323 318 313 309 306 303 301 301 302 302 303 303 301 299 296 294 292 289 287 286 285 284 284 283 281 280 278 275 274 272 270 270 270 270 270 270 270 270
80 79 70 43 21 10 21 39 28 14 2 3 9 16 16 13 8 10 37 71 60 43 18 3 352 352 3 13 6 352 340 330 334 354 29 30 27 21 13 10 1 354 350 347 343 339 335 329 323 317 312 307 304 301 300 299 298 298 297 296 294 292 290 288 286 284 283 282 281 280 279 278 277 276 274 271 269 267 265 264 263 264 265 266 267 268
70 65 62 45 21 11 10 17 12 3 355 1 27 43 40 23 7 355 359 20 27 26 16 14 7 356 348 352 356 356 351 344 352 8 20 20 19 17 15 10 2 355 350 346 341 337 332 327 322 317 312 308 304 301 299 297 295 293 291 289 287 285 283 282 281 280 278 278 277 276 275 274 273 271 269 267 265 263 261 260 259 259 261 263 265 268
54 39 27 28 21 14 10 4 359 356 350 358 30 51 53 33 12 352 353 6 5 359 352 351 1 9 357 348 346 347 350 351 354 359 3 11 15 15 11 5 358 352 348 341 335 330 327 322 318 315 311 309 306 303 300 296 293 290 287 284 282 280 279 278 277 276 275 274 273 272 271 270 268 266 264 263 262 261 261 260 259 259 260 262 264 267
40 27 18 21 20 10 4 354 359 4 11 10 15 21 26 20 359 343 345 4 359 349 335 327 329 7 34 8 352 343 341 343 346 345 341 3 13 10 358 349 345 342 341 333 326 321 320 316 313 311 309 308 306 303 300 295 291 287 283 280 278 277 275 274 273 272 271 270 269 268 266 265 264 262 261 261 261 262 263 263 263 263 263 264 265 267
34 23 31 33 21 11 4 357 6 18 22 13 6 356 344 336 321 309 324 24 7 342 317 309 305 331 62 42 18 354 336 335 337 339 339 5 17 10 348 332 328 327 327 318 313 310 311 311 309 308 307 306 304 303 299 293 287 282 278 276 274 273 272 270 269 268 267 266 264 263 262 260 259 259 258 259 261 263 265 267 268 269 270 270 270 271
18 25 52 43 20 358 352 348 5 21 22 6 340 311 295 288 294 316 3 17 5 342 324 319 312 326 86 63 35 3 336 343 349 346 337 338 359 19 348 321 314 311 311 306 303 303 306 306 305 303 302 300 299 297 294 287 280 275 274 272 270 269 269 267 266 265 263 262 261 260 258 257 257 256 257 258 259 262 265 268 270 272 274 274 274 274
4 34 70 62 28 331 326 317 326 344 358 347 324 305 293 312 335 353 24 16 358 346 353 348 340 336 76 97 75 30 350 359 5 352 330 318 322 12 14 316 308 305 303 300 299 300 302 300 297 295 295 295 293 292 291 285 280 276 275 273 272 271 270 268 267 265 263 262 260 259 258 257 256 256 257 257 259 260 263 266 268 270 271 272 272 273
36 65 95 106 99 301 304 291 294 300 317 326 334 340 348 358 358 358 24 13 11 8 17 5 343 326 314 93 95 70 9 359 357 343 319 309 311 334 40 312 304 302 303 301 298 298 301 298 297 295 293 292 292 293 292 289 286 284 282 281 279 278 277 274 272 270 267 265 263 261 260 259 258 258 257 258 259 260 262 264 265 267 268 268 269 270
152 152 144 147 164 220 284 267 266 268 279 293 338 37 38 23 9 358 357 357 21 34 36 32 354 312 306 305 20 74 40 351 337 327 312 304 307 325 36 313 295 294 298 297 297 296 297 298 298 298 296 299 299 299 297 296 293 291 290 288 286 284 281 278 276 274 271 268 266 265 263 262 261 260 260 260 260 261 262 263 264 265 267 268 269 270
162 183 191 184 184 204 235 238 229 222 225 217 185 144 108 61 24 357 357 357 11 35 70 324 226 246 273 294 332 57 69 349 325 318 308 302 305 321 19 329 294 288 291 294 297 298 300 300 299 300 301 303 303 302 300 298 296 294 293 290 287 285 282 279 276 274 271 269 268 266 265 264 263 262 262 262 263 263 264 265 266 267 268 270 271 273
163 191 211 204 190 183 213 218 218 208 196 169 156 142 107 99 68 54 44 14 13 14 59 256 248 243 246 277 298 42 103 350 312 306 301 298 302 316 12 330 303 294 293 293 296 299 301 301 301 301 301 302 302 301 300 298 296 295 292 290 287 284 281 278 275 273 270 269 267 266 265 264 263 263 263 263 263 264 265 266 267 268 270 271 273 274
152 191 206 199 198 184 109 239 213 192 172 157 146 134 117 120 207 158 127 122 133 152 185 239 246 243 226 263 275 294 110 286 300 301 299 296 296 301 18 342 310 298 293 291 292 292 294 295 296 295 296 297 298 298 298 297 296 294 292 289 286 283 280 277 274 271 269 267 266 265 265 264 263 262 262 262 263 263 264 266 268 269 271 272 273 273
139 172 192 199 212 232 49 191 189 179 168 169 169 166 149 189 282 275 183 182 198 215 226 243 251 251 239 262 272 278 128 241 273 289 296 293 292 293 56 21 299 291 291 292 292 290 288 288 286 285 288 293 296 297 297 297 296 294 292 289 286 282 278 275 272 270 268 266 265 264 263 263 262 261 261 262 262 264 266 268 269 271 272 273 274 274
134 158 170 193 212 234 261 234 199 185 182 191 201 201 178 197 235 247 216 209 224 241 252 259 261 259 250 256 257 246 198 217 229 252 278 287 294 302 41 207 279 285 290 294 297 296 292 288 285 284 287 293 296 298 299 299 297 295 293 290 286 282 278 274 270 268 266 265 264 263 262 262 262 262 263 264 265 267 269 271 272 273 274 275 275 275
143 163 167 190 208 222 235 221 204 198 203 211 215 207 190 204 214 219 210 221 236 258 275 273 267 258 244 241 237 221 184 194 209 232 262 282 294 304 337 290 290 293 295 299 302 303 299 292 286 284 286 295 300 303 305 306 304 302 300 296 293 288 283 277 273 270 267 266 265 264 265 265 265 267 268 270 271 273 274 274 275 275 276 276 275 275
168 174 174 193 205 212 218 218 205 192 189 200 212 215 210 219 226 238 286 261 252 256 273 274 274 271 268 267 258 228 161 175 199 227 259 282 293 299 303 277 289 295 299 303 304 301 298 294 292 291 294 301 307 311 316 319 319 319 319 318 316 312 307 300 293 287 283 281 279 277 276 276 276 277 278 278 278 278 278 277 277 277 276 276 275 274
179 181 183 195 208 222 247 282 298 297 261 223 214 212 198 209 216 237 280 262 256 258 269 276 279 281 285 289 285 272 167 172 195 220 248 281 293 296 294 273 275 289 298 304 304 302 299 298 298 301 310 312 315 318 325 330 333 335 337 335 334 331 328 323 319 315 309 305 301 296 291 289 287 286 285 284 283 282 281 280 279 278 277 276 275 273
142 148 158 175 290 343 348 347 340 333 327 319 310 292 220 195 213 250 262 258 257 261 270 277 281 283 286 282 278 271 206 179 189 204 221 268 286 291 299 312 290 290 298 302 304 304 301 299 302 308 319 315 310 314 325 330 335 338 340 338 335 333 330 326 323 318 313 309 305 300 296 293 291 289 288 287 286 285 283 282 281 280 279 278 275 273
49 48 44 36 27 16 5 354 341 331 322 315 311 308 301 243 243 262 265 256 245 251 263 271 277 281 284 282 280 276 263 232 191 170 189 241 269 281 294 299 263 280 297 303 302 299 294 293 298 307 311 301 296 304 317 326 331 334 334 333 332 329 327 323 319 315 311 307 303 300 297 295 293 292 291 291 290 288 287 285 284 283 281 278 275 272
38 38 36 32 25 15 2 347 330 315 306 302 301 300 298 261 249 260 265 246 231 244 258 263 268 273 279 284 284 280 270 265 190 134 165 208 247 263 266 243 237 269 302 306 303 294 274 269 274 286 287 288 293 301 310 320 324 327 327 328 327 326 325 323 320 317 312 308 305 302 299 298 297 296 296 295 293 292 290 289 287 285 281 277 274 271
19 17 17 14 10 1 349 333 316 304 298 295 294 293 294 268 249 253 256 229 229 242 254 258 261 265 272 281 283 280 270 260 131 131 170 210 242 257 256 269 269 285 316 314 311 305 288 256 232 242 263 282 292 300 306 312 316 317 318 320 321 321 322 322 321 319 316 312 309 305 303 302 301 300 299 298 296 294 292 290 288 285 280 276 273 271
349 343 334 336 338 338 330 317 308 302 298 296 295 295 297 272 247 247 241 221 225 234 244 251 255 257 260 269 275 275 272 228 144 153 184 224 256 273 280 293 298 302 305 319 317 314 313 310 268 233 252 279 292 300 304 308 310 310 308 309 311 314 318 320 320 319 317 314 310 308 306 304 302 301 300 298 296 294 292 290 287 284 279 276 273 271
324 317 310 312 316 317 315 310 305 301 297 296 296 294 284 251 228 223 223 218 219 224 230 239 244 246 244 249 256 265 277 225 161 167 186 226 264 278 277 290 296 294 266 291 297 299 303 305 296 282 280 289 294 298 300 301 299 297 294 296 299 306 314 317 318 317 314 312 309 306 304 302 301 300 298 297 295 292 290 288 286 282 278 275 272 271
301 295 291 298 302 303 299 299 297 295 291 288 283 277 276 246 214 203 204 212 215 216 218 223 228 233 236 243 251 261 277 269 169 165 180 211 261 278 277 284 289 290 284 280 277 276 278 286 294 298 297 295 293 292 291 289 286 283 283 288 293 301 309 312 313 311 308 307 304 302 301 299 298 296 295 293 292 290 288 287 285 282 277 275 272 272
284 277 276 284 289 290 288 288 288 288 286 282 274 256 222 213 204 201 196 200 206 211 214 214 215 220 229 244 255 262 272 281 125 135 171 220 267 280 283 284 287 290 292 287 282 277 273 280 287 295 298 296 293 289 284 280 279 280 280 283 289 294 300 305 305 303 301 300 298 296 295 295 293 291 291 290 289 288 287 286 284 281 278 275 272 272
263 264 265 271 277 284 289 289 290 291 291 290 294 288 242 211 205 205 209 208 206 206 209 215 219 221 223 242 257 266 269 286 358 18 314 288 286 288 286 283 285 288 290 287 286 285 282 284 288 293 297 298 296 290 275 263 266 274 273 269 274 280 287 292 294 294 294 293 290 287 286 285 285 285 285 285 285 285 286 286 284 283 280 277 275 275
264 268 265 262 267 278 287 293 299 303 312 317 325 322 319 288 253 234 226 232 232 227 223 226 228 229 227 238 252 263 271 280 297 305 300 293 285 281 280 280 282 285 285 285 284 285 286 288 289 291 292 293 294 293 286 257 242 252 264 269 271 274 277 278 279 281 284 284 283 282 280 280 279 278 278 282 284 285 287 287 286 285 284 282 281 280
272 275 269 257 254 260 266 272 276 286 296 305 312 316 322 311 300 287 267 259 262 264 260 258 251 242 235 238 247 257 267 273 277 279 280 277 269 264 267 274 277 278 278 280 283 285 287 289 290 289 287 286 289 295 302 300 291 284 284 285 284 281 279 275 272 271 273 276 278 280 281 279 278 277 278 282 285 287 288 288 288 287 286 285 283 281
276 277 271 252 236 234 243 244 244 243 251 275 291 301 308 301 297 294 289 284 277 272 264 261 259 254 250 254 255 256 259 260 261 261 262 260 255 251 256 266 271 273 271 274 280 283 285 286 288 289 287 284 286 291 298 303 303 301 299 295 290 284 279 274 268 265 265 270 276 279 281 281 280 281 281 284 286 287 286 284 284 284 284 283 282 280
269 269 265 249 230 217 218 224 227 227 232 251 264 274 280 279 276 274 271 267 260 253 249 251 257 262 262 265 264 262 260 254 249 245 246 244 242 243 248 257 265 268 269 270 272 275 276 277 280 283 287 289 290 291 294 297 298 299 300 296 290 283 276 272 268 264 262 268 273 277 279 279 279 279 278 279 279 279 278 278 278 279 281 282 281 279
264 261 261 254 240 223 218 224 225 225 227 240 252 260 261 257 253 247 235 231 230 231 231 237 247 258 262 264 265 265 263 256 248 240 233 226 225 230 239 249 257 264 266 264 262 262 264 267 271 275 279 284 289 291 293 291 293 296 299 297 293 288 287 284 278 272 267 267 269 273 276 276 275 272 271 269 268 268 270 272 275 276 278 279 280 280
260 256 255 255 244 233 230 234 235 234 232 234 243 251 249 238 232 228 229 229 226 222 222 239 251 257 257 255 256 256 255 252 247 240 226 214 215 222 233 240 248 255 259 258 255 255 256 262 267 271 274 278 282 285 285 286 289 291 292 290 289 290 292 286 280 274 270 268 267 269 273 275 276 275 273 271 269 267 267 270 272 273 273 271 270 271
264 258 252 249 243 239 236 239 241 241 239 237 240 245 248 236 229 236 255 262 263 265 265 272 276 277 278 273 264 253 246 245 241 234 224 214 213 217 226 232 238 244 249 253 254 254 254 259 263 268 272 276 281 283 284 284 284 284 283 283 287 289 287 278 270 264 264 266 265 265 269 275 278 279 279 279 277 274 272 271 270 269 269 265 262 260
264 264 263 262 259 254 251 249 247 242 237 236 238 241 240 233 239 251 262 267 272 275 277 277 279 282 285 284 278 267 250 241 236 232 226 216 213 215 222 228 232 237 242 249 254 256 255 256 259 263 268 273 276 279 282 283 283 280 277 278 282 287 286 279 273 269 268 271 271 271 271 274 276 278 280 280 280 278 275 270 267 265 263 263 262 260
275 280 286 285 280 272 265 255 247 242 240 239 239 240 240 241 249 258 263 266 271 274 278 276 274 273 274 275 275 272 259 243 234 230 229 222 217 215 220 225 228 231 233 241 250 257 259 257 257 259 263 266 269 272 276 278 279 278 276 275 274 273 273 281 287 288 283 279 276 273 272 275 278 279 280 278 275 272 268 264 261 259 257 257 258 258
283 287 289 285 279 273 265 260 256 253 251 246 245 246 249 251 255 260 263 268 269 269 266 264 265 266 267 271 274 276 272 264 250 239 237 236 233 229 227 227 228 229 231 236 243 251 258 262 263 264 264 263 264 266 269 274 276 277 276 275 273 271 270 275 279 280 279 277 275 273 273 276 279 280 279 275 272 268 264 263 261 258 255 253 252 253
255 263 266 272 273 273 271 269 267 264 260 257 256 256 257 254 253 256 262 265 267 265 260 257 258 263 269 275 280 284 286 284 277 267 255 246 243 241 240 237 236 235 234 236 240 244 249 256 262 267 268 266 264 263 264 269 273 276 278 278 278 277 276 275 275 274 274 275 275 276 277 279 279 277 276 276 275 273 269 266 263 261 258 255 252 251
244 255 262 264 263 261 262 264 267 268 266 264 263 264 264 261 257 255 255 256 257 256 252 249 254 262 270 277 283 286 286 285 283 278 271 262 257 254 253 247 243 241 241 242 242 243 245 248 252 257 263 266 267 267 265 265 268 271 275 278 280 281 279 278 276 275 274 274 275 277 281 282 280 278 277 280 280 279 275 271 268 264 262 259 257 255
258 264 266 261 258 256 256 259 262 265 267 265 263 263 265 263 259 255 252 248 251 257 262 263 267 270 272 274 274 273 273 274 276 278 279 280 280 276 269 262 254 249 248 249 251 250 249 247 246 247 250 256 262 267 269 267 266 267 272 276 278 279 279 279 278 277 275 273 273 274 277 278 279 281 285 286 285 283 281 278 273 269 264 262 260 259
255 261 264 264 264 264 264 263 261 260 261 262 261 260 260 261 260 260 260 256 257 262 267 268 268 268 267 265 265 266 269 272 275 277 279 283 285 286 284 280 275 267 261 257 255 255 255 249 243 239 238 242 249 258 264 265 266 266 268 270 271 273 275 277 278 278 277 275 271 266 262 267 273 278 283 285 285 285 284 282 278 274 269 264 261 260
247 254 261 266 268 269 267 265 262 260 258 259 258 257 255 254 255 258 261 260 259 257 256 257 259 261 264 265 265 266 268 270 272 274 277 280 282 284 284 285 284 282 278 270 264 260 256 253 243 235 230 229 234 242 254 259 263 264 264 263 263 266 270 273 276 277 278 279 277 272 266 267 269 271 273 277 281 283 285 283 280 277 273 268 264 261
247 253 259 263 266 267 267 265 263 260 258 256 256 255 253 250 248 247 249 250 250 250 250 251 253 256 259 261 263 264 264 265 268 271 274 276 278 279 281 283 285 286 286 285 283 280 277 276 267 250 233 225 224 227 238 248 256 261 262 260 259 260 263 268 272 275 278 280 280 279 275 271 269 267 265 270 276 280 282 282 281 280 278 276 272 268